Flag for U.S.A. Weather past 2 weeks in Waterbury, Connecticut, U.S.A.

Now
61 °F

Sunny.


Feels Like: 61 °F
Forecast: 45 / 74 °F
Wind: 5 mph from West

Location: Oxford

Current Time: Apr 18, 2015 at 10:25:07 AM

Latest Report: Apr 18, 2015 at 9:52 AM


Visibility: 10 mi

Pressure: 30.00 "Hg

Humidity: 55%

Dew point: 45 °F

Location of WaterburyLocation

Historic Weather in Waterbury — Graph

°F

Waterbury temperature yesterday

Maximum temperature yesterday: 64 °F (at 4:52 PM)
Minimum temperature yesterday: 46 °F (at 12:35 AM)
Average temperature yesterday: 54 °F

Past Weeks' High & Low Weather Summary

 TemperatureHumidityPressure
High66 °F (Apr 12, 4:50 PM)88% (Apr 3, 5:52 PM)30.50 "Hg (Apr 3, 5:52 PM)
Low28 °F (Apr 4, 11:55 PM)18% (Apr 6, 5:52 AM)29.44 "Hg (Apr 4, 4:35 AM)
Average46 °F60%30.14 "Hg
* Reported Apr 3 8:52 AM — Apr 18 8:52 AM, Waterbury, Weather by CustomWeather, © 2015

Note: Actual official high and low records may vary slightly from our data, if they occured in-between our weather recording intervals... More about our weather records

Advertising

Waterbury weather history for previous 24 hours

 ConditionsComfort  
Time TempWeatherWind HumidityBarometerVisibility
8:52 AM
Sat, Apr 18
57 °FSunny.3 mph67%29.99 "Hg10 mi
7:52 AM54 °FSunny.No wind72%30.00 "Hg10 mi
6:52 AM48 °FClear.No wind71%29.99 "Hg10 mi
5:52 AM46 °FClear.5 mph71%29.97 "Hg10 mi
5:35 AM48 °FClear.5 mph76%29.97 "Hg10 mi
5:15 AM48 °FClear.6 mph71%29.97 "Hg10 mi
4:55 AM48 °FClear.3 mph71%29.97 "Hg10 mi
4:35 AM46 °FClear.7 mph76%29.97 "Hg10 mi
4:15 AM48 °FClear.7 mph71%29.97 "Hg10 mi
3:55 AM46 °FClear.7 mph71%29.97 "Hg10 mi
3:35 AM48 °FClear.5 mph71%29.97 "Hg10 mi
3:15 AM48 °FClear.5 mph76%29.97 "Hg10 mi
2:55 AM48 °FClear.6 mph76%29.97 "Hg10 mi
2:35 AM48 °FClear.5 mph76%29.97 "Hg10 mi
2:15 AM52 °FClear.6 mph77%29.98 "Hg10 mi
1:55 AM50 °FClear.9 mph76%29.98 "Hg10 mi
1:15 AM54 °FClear.7 mph77%29.99 "Hg10 mi
12:55 AM52 °FClear.6 mph77%29.99 "Hg10 mi
12:35 AM50 °FClear.7 mph76%29.99 "Hg10 mi
12:15 AM50 °FClear.7 mph76%29.99 "Hg10 mi
11:55 PM
Fri, Apr 17
54 °FClear.5 mph77%29.99 "Hg10 mi
11:35 PM54 °FClear.No wind72%29.99 "Hg10 mi
11:15 PM55 °FClear.3 mph72%29.99 "Hg10 mi
10:55 PM54 °FClear.3 mph72%29.98 "Hg10 mi
10:35 PM55 °FClear.3 mph72%29.98 "Hg10 mi
10:15 PM55 °FPassing clouds.3 mph72%29.98 "Hg10 mi
9:55 PM55 °FPassing clouds.No wind72%29.97 "Hg10 mi
9:35 PM61 °FClear.No wind63%29.97 "Hg10 mi
9:15 PM61 °FClear.3 mph63%29.96 "Hg10 mi
8:55 PM55 °FClear.No wind77%29.96 "Hg10 mi
7:55 PM63 °FPassing clouds.6 mph64%29.93 "Hg10 mi
6:52 PM64 °FPartly sunny.6 mph64%29.92 "Hg10 mi
5:52 PM64 °FMostly cloudy.5 mph64%29.91 "Hg10 mi
4:52 PM64 °FPartly sunny.5 mph68%29.91 "Hg10 mi
3:55 PM63 °FOvercast.7 mph73%29.93 "Hg10 mi
2:52 PM63 °FPartly sunny.7 mph73%29.95 "Hg7 mi
1:52 PM59 °FMostly cloudy.6 mph77%29.96 "Hg7 mi
12:52 PM57 °FOvercast.9 mph82%29.99 "Hg7 mi
11:45 AM55 °FFog.6 mph19%30.02 "Hg6 mi
10:45 AM55 °FFog.6 mph77%30.04 "Hg6 mi
Weather by CustomWeather, © 2015

See weather overviewHow to use our weather pages